Regional Weather Roundup
Issued by NWS

Home | Current Version | Previous Version | Graphics & Text | Print | Product List | Glossary On
Versions: 1 2 3 4 5 6 7 8 9 10 11 12 13 14 15 16 17 18 19 20 21 22 23 24 25 26 27 28 29 30 31 32 33 34 35 36 37 38 39 40 41 42 43 44 45 46 47 48 49 50
000
ASUS43 KMPX 270410
RWRMN
WEATHER ROUNDUP FOR MINNESOTA
NATIONAL WEATHER SERVICE TWIN CITIES/CHANHASSEN MN
1000 PM CST MON JAN 26 2015


NOTE: "FAIR" INDICATES FEW OR NO CLOUDS BELOW 12,000 FEET WITH NO
SIGNIFICANT WEATHER AND/OR OBSTRUCTIONS TO VISIBILITY. N/A MEANS
CURRENT SKY AND/OR WEATHER CONDITIONS ARE NOT AVAILABLE.

MNZ060>063-068>070-270500-
   Twin Cities Metro

CITY           SKY/WX    TMP DP  RH WIND       PRES   REMARKS
TWIN CITIES    CLOUDY    38  28  67 NW12      29.93R
ST PAUL        CLOUDY    38  30  73 NW9       29.94R
CRYSTAL        CLOUDY    38  29  70 N8        29.93R
BLAINE         CLOUDY    39  30  70 NW13      29.93R
LAKEVILLE      CLOUDY    34  30  86 W8        29.92R WCI  27
EDEN PRAIRIE   CLOUDY    36  29  75 NW8       29.93R
SOUTH ST PAUL  CLOUDY    38  30  72 NW7       29.92R
LAKE ELMO      CLOUDY    36  32  87 N8        29.92R
$$
MNZ001>005-007-008-013>017-022>024-027-028-270500-
   Northwest Minnesota

CITY           SKY/WX    TMP DP  RH WIND       PRES   REMARKS
BEMIDJI        CLOUDY    28  24  86 NW7       29.97R WCI  21
HALLOCK        CLOUDY    25  23  93 N3        30.00S
ROSEAU         CLOUDY    25  21  86 W6        29.98S WCI  18
WARROAD        CLOUDY    25  19  80 W3        29.98S
THIEF RVR FALL CLOUDY    27  25  93 CALM      30.00R
CROOKSTON      CLOUDY    27  25  93 CALM      30.02S
FOSSTON        CLOUDY    25  23  93 NW6       29.99R WCI  18
DETROIT LAKES  CLOUDY    28  28 100 N6        30.00R WCI  22
MOORHEAD       PTCLDY    28  28 100 CALM      30.03R
PARK RAPIDS    CLOUDY    30  25  81 NW8       29.96R WCI  22
MAHNOMEN       CLOUDY    28  26  93 NW6       29.99R WCI  21
$$
MNZ006-009>011-018-025>026-270500-
   North Central Minnesota

CITY           SKY/WX    TMP DP  RH WIND       PRES   REMARKS
BAUDETTE       CLOUDY    25  21  85 NW7       29.96R WCI  17
FLAG ISLAND    CLOUDY    25  21  86 W6        29.97R WCI  18
INTL FALLS     CLOUDY    25  21  85 W7        29.95R WCI  17
WASKISH        CLOUDY    27  25  93 CALM      29.97R
BIG FORK       CLOUDY    27  21  80 N3        29.96R
LONGVILLE      CLOUDY    30  25  80 N3        29.95R
GRAND RAPIDS   CLOUDY    28  23  80 NW12      29.94R WCI  18
CRANE LAKE     CLOUDY    23  21  93 CALM      29.97R
ORR            CLOUDY    25  19  80 CALM      29.92R
COOK           CLOUDY    25  21  86 CALM      29.94S
WALKER         CLOUDY    29  25  83 NW5       29.96R WCI  24
$$
MNZ012-019>021-037-270500-
   Northeast Minnesota

CITY           SKY/WX    TMP DP  RH WIND       PRES   REMARKS
DULUTH         CLOUDY    28  23  81 N8        29.91R WCI  20
ELY            CLOUDY    23  21  93 NW3       29.92R
HIBBING        CLOUDY    28  22  78 N8        29.93R WCI  20
EVELETH        MOCLDY    27  23  86 NW6       29.94R WCI  20
DULUTH HARBOR  CLOUDY    30  27  86 N14       29.96R WCI  20
TWO HARBORS    CLOUDY    28  25  86 N6        29.91R WCI  22
SILVER BAY     CLOUDY    27  23  86 CALM      29.91R
GRAND MARAIS     N/A     26  21  81 VRB5      29.94R WCI  20
G MARAIS ARPRT CLOUDY    18  12  79 N3        29.88R
$$
MNZ029>031-032-039>041-046>048-054>057-064-270500-
   West Central Minnesota

CITY           SKY/WX    TMP DP  RH WIND       PRES   REMARKS
FERGUS FALLS   CLOUDY    28  27  93 N6        30.03R WCI  22
WHEATON        PTCLDY    27  25  93 N5        30.03S WCI  21
MORRIS         FAIR      30  28  93 NW8       29.98S WCI  23
ALEXANDRIA     CLOUDY    29  26  89 N12       29.97S WCI  19
ELBOW LAKE     CLOUDY    28  27  96 N7        29.99R WCI  21
WADENA         CLOUDY    28  25  86 N6        29.97R WCI  22
GLENWOOD       CLOUDY    30  27  86 N9        29.97S WCI  22
APPLETON       MOCLDY    32  30  93 N9        30.00R WCI  24
BENSON         CLEAR     30  27  86 N7        29.99R WCI  23
ORTONVILLE     CLEAR     30  28  93 CALM      30.01R
MADISON        CLEAR     36  34  93 N8        30.01R
WILLMAR        CLOUDY    34  28  80 N10       29.99R WCI  26
$$
MNZ033>034-036-042>043-049>051-058-059-270500-
   Central Minnesota

CITY           SKY/WX    TMP DP  RH WIND       PRES   REMARKS
ST CLOUD       CLOUDY    35  27  72 NW9       29.95R WCI  28
SAUK CENTRE    CLOUDY    31  28  86 NW12      29.97S WCI  22
PAYNESVILLE    CLOUDY    30  28  91 W8        29.98R WCI  22
AITKIN         CLOUDY    34  25  69 N7        29.93R WCI  28
PINE RIVER     CLOUDY    30  27  86 N6        29.99R WCI  24
BRAINERD       CLOUDY    31  25  78 N10       29.95R WCI  22
STAPLES        CLOUDY    28  25  86 NW8       29.97R WCI  20
LONG PRAIRIE   CLOUDY    32  28  86 NW9       29.97R WCI  24
LITTLE FALLS   CLOUDY    32  27  80 NW6       29.97R WCI  26
LITCHFIELD     CLOUDY    34  30  86 NW9       29.97S WCI  26
BUFFALO        CLOUDY    35  29  80 W8        29.96R WCI  28
MAPLE LAKE     CLOUDY    35  31  87 NW6       29.97R WCI  30
$$
MNZ037-044-045-052-053-270500-
   East Central Minnesota

CITY           SKY/WX    TMP DP  RH WIND       PRES   REMARKS
PRINCETON      CLOUDY    36  30  80 N8        29.95R
MORA           CLOUDY    34  25  69 VRB5      29.95R WCI  30
CAMBRIDGE      CLOUDY    37  27  65 N6        29.92R
RUSH CITY      CLOUDY    34  28  80 N6        29.93R WCI  29
MOOSE LAKE     CLOUDY    32  27  80 N6        29.92R WCI  26
HINCKLEY       CLOUDY    34  30  86 N6        29.93R WCI  29
CLOQUET        CLOUDY    28  23  80 N8        29.92R WCI  20
MCGREGOR       CLOUDY    32  27  80 N12       29.94R WCI  23
$$
MNZ071>073-080-081-089-090-097-098-270500-
   Southwest Minnesota

CITY           SKY/WX    TMP DP  RH WIND       PRES   REMARKS
MONTEVIDEO     CLEAR     32  30  93 N8        30.01R WCI  25
GRANITE FALLS  CLEAR     32  30  92 NW6       30.01R WCI  27
CANBY          CLEAR     32  31  96 NW3       30.02R
MARSHALL       CLEAR     34  28  80 N9        30.01R WCI  26
REDWOOD FALLS  CLEAR     34  29  82 NW10      29.98R WCI  26
OLIVIA         CLEAR     32  30  93 N6        29.98R WCI  26
PIPESTONE      CLEAR     34  32  93 NW7       29.99R WCI  28
WINDOM         CLEAR     36  34  93 NW14      29.97S
WORTHINGTON    CLEAR     34  28  80 NW10      29.99R WCI  26
JACKSON        CLEAR     34  32  93 NW9       29.98R WCI  26
TRACY          CLEAR     35  32  91 NW8       29.99S WCI  28
SLAYTON        CLEAR     32  31  96 CALM      29.99R
$$
MNZ065>067-074>077-082>085-091>093-270500-
   South Central Minnesota

CITY           SKY/WX    TMP DP  RH WIND       PRES   REMARKS
MANKATO        CLOUDY    36  27  69 NW12      29.96R
NEW ULM        CLOUDY    36  30  80 N9        29.97R
ST JAMES       PTCLDY    36  32  87 NW10      29.99R
FAIRMONT       CLOUDY    36  28  75 NW14      29.96R
GLENCOE        CLOUDY    35  32  88 NW9       29.95R WCI  28
FARIBAULT      CLOUDY    36  30  80 W7        29.94R
OWATONNA       CLOUDY    36  30  80 NW8       29.93R
WASECA         CLOUDY    34  32  93 NW8       29.95R WCI  27
ALBERT LEA     CLOUDY    37  32  81 NW8       29.92R
$$
MNZ078>079-086>088-094>096-270500-
   Southeast Minnesota

CITY           SKY/WX    TMP DP  RH WIND       PRES   REMARKS
ROCHESTER      CLOUDY    35  30  82 NW13      29.90R WCI  26
RED WING       CLOUDY    39  28  65 CALM      29.90S
STANTON        CLOUDY    36  31  81 NW7       29.91R
DODGE CENTER   CLOUDY    36  32  87 NW10      29.90R
WINONA         CLOUDY    30  28  93 CALM      29.91R
AUSTIN         CLOUDY    36  30  80 NW12      29.91R
PRESTON        CLOUDY    35  31  87 N9        29.88S WCI  27
$$
ABBREVIATIONS USED IN REMARKS
   TC - TEMPERATURES IN CELSIUS
  WCI - WIND CHILL INDEX
   HX - HEAT INDEX
  VSB - VISIBILITY
$$


USA.gov is the U.S. government's official web portal to all federal, state and local government web resources and services.